Location: Ashtead
(51.3000°N, 0.3000°W)
Time: 18:18:10
(UTC+00:00)

ATLAS 5 CENTAUR R/B - Pass Details

Date: 26 September 2023
Orbit: 432 x 1181 km, 63.3° (Epoch: 28 November)

Event Time Altitude Azimuth Distance (km) Brightness Sun altitude
Exits shadow 02:42:47 30° 26° (NNE) 956 3.0 -28.4°
Drops below altitude 10° 02:45:08 10° 40° (NE) 1,856 4.9 -28.1°
Enters shadow 03:50:02 -65° 238° (WSW) 12,403 8.1 -19.5°
